Fort Knox, KY

4:14 PM EDT on June 25, 2017 (GMT -0400)
Godman Army Air Field

Weather History for KFTK - December, 2013

Change the Weather History Date:

Sunday, December 8, 2013

  Actual Average Record
Temperature  
Mean Temperature 28 °F -  
Max Temperature 33 °F 45 °F 59 °F (2012)
Min Temperature 23 °F 30 °F 8 °F (2006)
Degree Days  
Heating Degree Days 37    
Moisture  
Dew Point 26 °F    
Average Humidity 96    
Maximum Humidity 100    
Minimum Humidity 87    
Precipitation  
Precipitation 0.15 in - - ()
Sea Level Pressure  
Sea Level Pressure 30.20 in    
Wind  
Wind Speed 3 mph (NE)    
Max Wind Speed 9 mph    
Max Gust Speed -    
Visibility 4 miles    
Events Rain , Snow    
Averages and records for this station are not official NWS values.
T = Trace of Precipitation, MM = Missing Value Source: NWS Daily Summary

Daily Weather History Graph

Daily Weather History Graph

Search for Another Location

Airport or City:

Trip Planner

Search our weather history database for the weather conditions in past years. The results will help you decide how hot, cold, wet, or windy it might be!

Date:

Astronomy

Dec. 08, 2013 Rise Set
Actual Time 7:47 AM EST 5:24 PM EST
Civil Twilight 7:18 AM EST 5:53 PM EST
Nautical Twilight 6:45 AM EST 6:26 PM EST
Astronomical Twilight 6:13 AM EST 6:58 PM EST
Moon 12:12 PM EST (12/8) No Moon Set
Length of Visible Light 10h 35m
Length of Day
9h 37m
Waxing Crescent, 40% of the Moon is Illuminated
Dec 8
Waxing Crescent
Dec 9
First Quarter
Dec 17
Full
Dec 25
Last Quarter
Jan 1
New

Hourly Weather History & Observations

Time (EST) Temp. Windchill Dew Point Humidity Pressure Visibility Wind Dir Wind Speed Gust Speed Precip Events Conditions
12:58 AM 23.5 °F - 20.3 °F 87% 30.46 in 10.0 mi Calm Calm - N/A   Overcast
1:58 AM 23.5 °F - 20.5 °F 88% 30.41 in 10.0 mi Calm Calm - N/A   Scattered Clouds
2:23 AM 23.0 °F - 21.2 °F 93% 30.37 in 10.0 mi Calm Calm - N/A   Mostly Cloudy
2:58 AM 23.7 °F - 20.8 °F 89% 30.38 in 10.0 mi NE 1.2 mph - N/A   Overcast
3:38 AM 23.0 °F - 21.2 °F 93% 30.34 in 10.0 mi Calm Calm - N/A   Overcast
3:51 AM 23.0 °F - 21.2 °F 93% 30.35 in 10.0 mi NE 1.2 mph - N/A Snow Light Snow
3:58 AM 23.7 °F - 20.7 °F 88% 30.40 in 10.0 mi NE 1.2 mph - 0.00 in Snow Light Snow
4:08 AM 23.0 °F - 21.2 °F 93% 30.34 in 7.0 mi NE 1.2 mph - N/A Snow Light Snow
4:13 AM 23.0 °F - 21.2 °F 93% 30.33 in 8.0 mi NE 1.2 mph - N/A Snow Light Snow
4:38 AM 23.0 °F - 21.2 °F 93% 30.31 in 10.0 mi NE 1.2 mph - N/A   Mostly Cloudy
4:48 AM 23.0 °F - 21.2 °F 93% 30.30 in 10.0 mi Variable 1.2 mph - N/A Snow Light Snow
4:58 AM 23.5 °F - 20.8 °F 89% 30.34 in 10.0 mi NNE 1.2 mph - 0.00 in Snow Light Snow
4:59 AM 23.0 °F - 21.2 °F 93% 30.29 in 10.0 mi NE 1.2 mph - N/A   Partly Cloudy
5:32 AM 23.0 °F - 21.2 °F 93% 30.28 in 10.0 mi NE 1.2 mph - N/A Snow Light Snow
5:55 AM 24.1 °F 16.0 °F 21.6 °F 90% 30.30 in 6.0 mi ENE 6.9 mph - 0.00 in Snow Light Snow
6:27 AM 24.8 °F 19.1 °F 23.0 °F 93% 30.25 in 3.0 mi ENE 4.6 mph - N/A Snow Light Snow
6:55 AM 24.4 °F 14.9 °F 23.5 °F 96% 30.28 in 4.0 mi NE 9.2 mph - 0.00 in Snow Light Snow
7:19 AM 24.8 °F 16.1 °F 23.0 °F 93% 30.25 in 2.0 mi ENE 8.1 mph - N/A Rain Light Freezing Rain
7:55 AM 25.7 °F 17.1 °F 23.9 °F 93% 30.25 in 2.5 mi ENE 8.1 mph - 0.03 in Rain Light Freezing Rain
8:28 AM 24.8 °F 19.1 °F 23.0 °F 93% 30.24 in 2.0 mi NE 4.6 mph - N/A Snow Light Snow
8:47 AM 24.8 °F 19.1 °F 24.8 °F 100% 30.24 in 1.8 mi NNE 4.6 mph - N/A   Light Ice Pellets
8:55 AM 25.7 °F 20.1 °F 24.1 °F 94% 30.28 in 3.0 mi NNE 4.6 mph - 0.05 in Snow Light Snow
9:55 AM 26.2 °F 17.1 °F 24.8 °F 94% 30.26 in 4.0 mi NE 9.2 mph - 0.04 in   Light Ice Pellets
10:32 AM 26.6 °F 18.2 °F 24.8 °F 93% 30.23 in 6.0 mi NE 8.1 mph - N/A   Overcast
10:57 AM 27.1 °F 19.7 °F 25.5 °F 94% 30.25 in 6.0 mi NE 6.9 mph - 0.00 in   Overcast
11:35 AM 26.6 °F 21.2 °F 26.6 °F 100% 30.19 in 5.0 mi NE 4.6 mph - N/A   Light Freezing Drizzle
11:56 AM 27.9 °F 21.5 °F 26.6 °F 95% 30.21 in 1.5 mi ENE 5.8 mph - 0.00 in   Light Freezing Drizzle
12:30 PM 28.4 °F 23.3 °F 26.6 °F 93% 30.14 in 0.8 mi ENE 4.6 mph - N/A   Light Freezing Drizzle
12:55 PM 28.4 °F 23.3 °F 28.4 °F 100% 30.17 in 1.0 mi ENE 4.6 mph - 0.01 in   Light Freezing Drizzle
1:55 PM 29.1 °F 24.1 °F 28.4 °F 97% 30.14 in 1.0 mi NE 4.6 mph - 0.00 in   Light Freezing Drizzle
2:08 PM 30.2 °F 25.4 °F 28.4 °F 93% 30.10 in 0.8 mi NE 4.6 mph - N/A   Overcast
2:56 PM 29.8 °F 23.9 °F 29.3 °F 98% 30.12 in 0.8 mi NE 5.8 mph - 0.01 in   Overcast
3:55 PM 30.6 °F 25.8 °F 30.4 °F 99% 30.09 in 0.8 mi NE 4.6 mph - N/A   Overcast
4:55 PM 31.5 °F 25.8 °F 31.3 °F 99% 30.08 in 0.8 mi NE 5.8 mph - N/A   Overcast
5:44 PM 32.0 °F - 32.0 °F 100% 30.06 in 0.8 mi Calm Calm - N/A   Mist
5:55 PM 31.8 °F 28.5 °F 31.8 °F 100% 30.06 in 0.8 mi North 3.5 mph - N/A   Mist
6:55 PM 32.4 °F 29.1 °F 32.4 °F 100% 30.06 in 1.0 mi South 3.5 mph - 0.01 in   Mist
7:55 PM 32.4 °F 29.1 °F 32.4 °F 100% 30.06 in 1.0 mi South 3.5 mph - N/A   Mist
8:56 PM 33.1 °F - 33.1 °F 100% 30.06 in 1.0 mi Calm Calm - N/A   Mist
9:05 PM 32.0 °F - 32.0 °F 100% 30.03 in 1.2 mi Calm Calm - N/A   Overcast
9:15 PM 32.0 °F - 32.0 °F 100% 30.03 in 1.8 mi Calm Calm - N/A   Overcast
9:35 PM 32.0 °F - 32.0 °F 100% 30.03 in 1.5 mi Calm Calm - N/A   Overcast
9:58 PM 33.1 °F - 33.1 °F 100% 30.06 in 1.2 mi Calm Calm - N/A   Overcast
10:18 PM 32.0 °F 28.7 °F 32.0 °F 100% 30.03 in 1.8 mi WSW 3.5 mph - N/A   Overcast
10:23 PM 32.0 °F 25.6 °F 32.0 °F 100% 30.03 in 2.0 mi WSW 6.9 mph - N/A   Overcast
10:33 PM 32.0 °F 25.6 °F 32.0 °F 100% 30.03 in 3.0 mi SW 6.9 mph - N/A   Overcast
10:58 PM 32.9 °F 25.9 °F 32.9 °F 100% 30.06 in 5.0 mi SW 8.1 mph - N/A   Overcast
11:43 PM 32.0 °F 24.8 °F 32.0 °F 100% 30.04 in 5.0 mi SW 8.1 mph - N/A   Overcast
11:58 PM 32.7 °F 25.7 °F 32.7 °F 100% 30.07 in 3.0 mi SW 8.1 mph - N/A   Overcast